Total_Precipitation_Accumulation
0.00 0.00 0.00 0.00 0.00 0.00 0.00 0.00 0.00 0.00 0.00 0.00 0.00 0.00 0.00 0.00 0.00 0.00 0.00 0.00 0.00 0.00 0.00 0.03 0.12 0.17 0.25 0.35 0.15 0.10 0.04 0.01 0.01 0.02 0.00 0.00 0.00 0.00 0.00 0.00 0.02 0.03 0.01 0.05 0.13 0.28 0.50 0.13 0.01
0.00 0.00 0.00 0.00 0.00 0.00 0.00 0.00 0.00 0.00 0.00 0.00 0.00 0.00 0.00 0.00 0.00 0.00 0.00 0.00 0.00 0.00 0.00 0.03 0.08 0.16 0.23 0.38 0.45 0.19 0.11 0.03 0.03 0.03 0.00 0.00 0.00 0.00 0.01 0.00 0.04 0.02 0.05 0.14 0.20 0.37 0.14 0.00 0.00
0.00 0.00 0.00 0.00 0.00 0.00 0.00 0.00 0.00 0.00 0.00 0.00 0.00 0.00 0.00 0.00 0.00 0.00 0.00 0.00 0.00 0.00 0.01 0.05 0.10 0.12 0.25 0.34 0.52 0.41 0.26 0.12 0.04 0.02 0.00 0.00 0.00 0.01 0.01 0.03 0.06 0.03 0.15 0.10 0.15 0.14 0.01 0.00 0.00
0.00 0.00 0.00 0.00 0.00 0.00 0.00 0.00 0.00 0.00 0.00 0.00 0.00 0.00 0.00 0.00 0.00 0.00 0.00 0.00 0.01 0.01 0.03 0.09 0.19 0.19 0.21 0.41 0.47 0.48 0.37 0.25 0.18 0.04 0.00 0.00 0.01 0.01 0.02 0.04 0.05 0.03 0.12 0.05 0.08 0.01 0.00 0.00 0.00
0.00 0.00 0.00 0.00 0.00 0.00 0.00 0.00 0.00 0.00 0.00 0.00 0.00 0.00 0.00 0.00 0.00 0.00 0.00 0.01 0.02 0.03 0.04 0.06 0.29 0.38 0.34 0.45 0.40 0.46 0.44 0.33 0.25 0.17 0.01 0.00 0.03 0.01 0.03 0.03 0.03 0.02 0.10 0.01 0.00 0.00 0.00 0.00 0.00
0.00 0.00 0.00 0.00 0.00 0.00 0.00 0.00 0.00 0.00 0.00 0.00 0.00 0.00 0.00 0.00 0.00 0.00 0.00 0.01 0.02 0.04 0.04 0.05 0.17 0.38 0.50 0.43 0.42 0.52 0.53 0.44 0.33 0.23 0.12 0.03 0.06 0.03 0.03 0.02 0.02 0.02 0.03 0.00 0.00 0.00 0.00 0.00 0.00
0.00 0.00 0.00 0.00 0.00 0.00 0.00 0.00 0.00 0.00 0.00 0.00 0.00 0.00 0.00 0.00 0.00 0.00 0.00 0.00 0.01 0.02 0.04 0.06 0.10 0.27 0.45 0.50 0.43 0.48 0.57 0.48 0.44 0.32 0.22 0.12 0.09 0.08 0.07 0.02 0.02 0.01 0.03 0.00 0.00 0.00 0.00 0.00 0.00
0.00 0.00 0.00 0.00 0.00 0.00 0.00 0.00 0.00 0.00 0.00 0.00 0.00 0.00 0.00 0.00 0.00 0.00 0.00 0.00 0.00 0.01 0.02 0.06 0.08 0.24 0.39 0.52 0.43 0.42 0.47 0.37 0.30 0.26 0.14 0.04 0.04 0.06 0.09 0.02 0.01 0.01 0.02 0.00 0.00 0.00 0.00 0.00 0.00
0.00 0.00 0.00 0.00 0.00 0.00 0.00 0.00 0.00 0.00 0.00 0.00 0.00 0.00 0.00 0.00 0.00 0.00 0.00 0.00 0.00 0.00 0.02 0.05 0.10 0.16 0.34 0.52 0.58 0.51 0.38 0.51 0.39 0.28 0.23 0.17 0.07 0.04 0.04 0.00 0.00 0.01 0.00 0.00 0.00 0.00 0.00 0.00 0.00
0.00 0.00 0.00 0.00 0.00 0.00 0.00 0.00 0.00 0.00 0.00 0.00 0.00 0.00 0.00 0.00 0.00 0.00 0.00 0.00 0.00 0.00 0.01 0.03 0.10 0.15 0.17 0.28 0.61 0.66 0.64 0.49 0.42 0.27 0.11 0.10 0.11 0.04 0.02 0.01 0.00 0.01 0.01 0.00 0.00 0.00 0.00 0.00 0.00
0.00 0.00 0.00 0.00 0.00 0.00 0.00 0.00 0.00 0.00 0.00 0.00 0.00 0.00 0.00 0.00 0.00 0.00 0.00 0.00 0.00 0.00 0.00 0.02 0.04 0.11 0.12 0.19 0.44 0.51 0.53 0.48 0.43 0.32 0.18 0.09 0.14 0.09 0.04 0.03 0.02 0.01 0.01 0.01 0.00 0.00 0.00 0.00 0.00
0.00 0.00 0.00 0.00 0.00 0.00 0.00 0.00 0.00 0.00 0.00 0.00 0.00 0.00 0.00 0.00 0.00 0.00 0.00 0.00 0.00 0.00 0.00 0.01 0.01 0.16 0.17 0.15 0.23 0.31 0.37 0.40 0.31 0.25 0.27 0.15 0.12 0.11 0.04 0.02 0.00 0.00 0.00 0.00 0.00 0.00 0.00 0.00 0.00
0.00 0.00 0.00 0.00 0.00 0.00 0.00 0.00 0.00 0.00 0.00 0.00 0.00 0.00 0.00 0.00 0.00 0.00 0.00 0.00 0.00 0.00 0.00 0.00 0.00 0.13 0.25 0.25 0.20 0.20 0.28 0.29 0.22 0.39 0.31 0.18 0.10 0.08 0.07 0.02 0.00 0.00 0.00 0.00 0.00 0.00 0.00 0.00 0.00
0.00 0.00 0.00 0.00 0.00 0.00 0.00 0.00 0.00 0.00 0.00 0.00 0.00 0.00 0.00 0.00 0.00 0.00 0.00 0.00 0.00 0.00 0.00 0.00 0.00 0.10 0.27 0.22 0.27 0.19 0.20 0.22 0.33 0.31 0.27 0.21 0.10 0.07 0.06 0.04 0.01 0.00 0.00 0.00 0.00 0.00 0.00 0.00 0.00
0.00 0.00 0.00 0.00 0.00 0.00 0.00 0.00 0.00 0.00 0.00 0.00 0.00 0.00 0.00 0.00 0.00 0.00 0.00 0.00 0.00 0.00 0.00 0.00 0.00 0.04 0.19 0.11 0.14 0.19 0.19 0.18 0.21 0.14 0.24 0.34 0.17 0.10 0.07 0.02 0.01 0.00 0.00 0.00 0.00 0.00 0.00 0.00 0.00
0.01 0.01 0.01 0.00 0.00 0.00 0.00 0.00 0.00 0.00 0.00 0.00 0.00 0.00 0.00 0.00 0.00 0.00 0.00 0.00 0.00 0.00 0.00 0.00 0.00 0.00 0.08 0.10 0.09 0.13 0.16 0.17 0.18 0.17 0.25 0.31 0.23 0.13 0.08 0.03 0.01 0.00 0.00 0.00 0.00 0.00 0.00 0.00 0.00
0.03 0.03 0.03 0.01 0.00 0.00 0.00 0.00 0.00 0.00 0.00 0.00 0.00 0.00 0.00 0.00 0.00 0.00 0.00 0.00 0.00 0.00 0.00 0.00 0.00 0.06 0.02 0.06 0.12 0.13 0.09 0.13 0.12 0.15 0.23 0.32 0.25 0.22 0.14 0.05 0.04 0.03 0.01 0.00 0.00 0.00 0.00 0.00 0.00
0.14 0.12 0.05 0.01 0.00 0.00 0.00 0.00 0.00 0.00 0.00 0.00 0.00 0.00 0.00 0.00 0.00 0.00 0.00 0.00 0.00 0.00 0.00 0.00 0.00 0.08 0.14 0.04 0.09 0.22 0.15 0.10 0.15 0.17 0.16 0.26 0.22 0.17 0.20 0.13 0.08 0.07 0.07 0.04 0.01 0.00 0.00 0.00 0.00
0.10 0.13 0.12 0.02 0.00 0.00 0.00 0.00 0.00 0.01 0.01 0.02 0.01 0.00 0.00 0.00 0.00 0.00 0.00 0.00 0.01 0.00 0.00 0.00 0.01 0.04 0.35 0.19 0.08 0.11 0.22 0.15 0.12 0.18 0.15 0.19 0.20 0.17 0.19 0.15 0.19 0.16 0.11 0.10 0.08 0.05 0.01 0.00 0.00
0.06 0.05 0.01 0.00 0.00 0.00 0.00 0.00 0.01 0.04 0.04 0.12 0.09 0.07 0.08 0.02 0.01 0.00 0.00 0.01 0.04 0.03 0.01 0.00 0.02 0.05 0.48 0.58 0.27 0.07 0.07 0.14 0.14 0.10 0.13 0.15 0.18 0.18 0.22 0.18 0.16 0.20 0.15 0.11 0.11 0.09 0.03 0.01 0.00
0.02 0.03 0.01 0.00 0.00 0.00 0.00 0.00 0.00 0.00 0.00 0.01 0.00 0.07 0.15 0.10 0.02 0.02 0.02 0.02 0.06 0.06 0.04 0.03 0.02 0.06 0.35 0.92 0.71 0.41 0.27 0.27 0.29 0.29 0.25 0.22 0.26 0.22 0.25 0.22 0.21 0.26 0.21 0.10 0.06 0.08 0.07 0.05 0.01
0.03 0.02 0.01 0.00 0.00 0.00 0.00 0.02 0.00 0.00 0.00 0.00 0.00 0.09 0.14 0.08 0.11 0.14 0.06 0.06 0.06 0.08 0.13 0.12 0.09 0.11 0.28 0.81 1.45 1.11 0.52 0.26 0.19 0.15 0.17 0.23 0.26 0.28 0.22 0.22 0.20 0.34 0.34 0.21 0.09 0.07 0.08 0.08 0.05
0.03 0.01 0.00 0.00 0.00 0.00 0.00 0.03 0.00 0.00 0.03 0.06 0.43 0.29 0.46 0.57 0.97 0.65 0.15 0.08 0.19 0.21 0.24 0.17 0.15 0.19 0.23 0.46 0.73 1.48 1.37 0.65 0.30 0.26 0.22 0.28 0.43 0.32 0.28 0.31 0.29 0.29 0.49 0.54 0.33 0.12 0.09 0.08 0.06
0.02 0.01 0.00 0.00 0.02 0.03 0.00 0.01 0.00 0.04 0.07 0.04 0.26 0.48 0.86 0.74 1.08 1.17 1.31 0.51 0.42 0.54 0.68 0.35 0.23 0.28 0.20 0.26 0.47 0.62 1.33 1.36 0.97 0.71 0.65 0.57 0.47 0.73 0.48 0.34 0.52 0.59 0.48 0.50 0.57 0.54 0.29 0.14 0.08
0.00 0.03 0.11 0.05 0.13 0.05 0.00 0.00 0.02 0.02 0.02 0.04 0.21 0.70 1.24 1.31 1.41 1.57 1.88 1.82 1.73 1.54 1.18 0.77 0.36 0.53 0.24 0.18 0.31 0.39 0.46 0.80 0.90 0.95 0.90 0.81 0.78 0.74 0.94 0.91 0.48 0.61 0.69 0.60 0.64 0.69 0.62 0.52 0.37
0.00 0.00 0.04 0.07 0.06 0.01 0.00 0.00 0.00 0.01 0.00 0.02 0.16 0.56 1.13 0.98 1.05 0.79 1.30 1.67 1.50 1.37 0.84 0.37 0.27 0.54 0.37 0.26 0.13 0.20 0.43 0.31 0.50 0.64 0.84 0.94 0.72 0.63 0.72 1.05 1.42 0.96 0.86 0.98 0.84 0.82 0.83 0.91 0.79
0.00 0.00 0.00 0.00 0.00 0.00 0.00 0.00 0.00 0.00 0.00 0.00 0.03 0.31 1.12 0.82 0.64 0.67 1.02 0.88 0.92 0.53 0.81 0.49 0.38 0.24 0.23 0.31 0.20 0.27 0.62 0.42 0.22 0.31 0.50 0.56 0.62 0.67 0.79 0.83 0.86 1.30 1.38 1.20 1.63 1.53 1.21 1.32 1.24
0.00 0.00 0.00 0.00 0.00 0.00 0.00 0.01 0.00 0.00 0.00 0.00 0.01 0.06 0.22 0.43 0.56 0.63 0.69 0.93 0.98 0.84 1.18 0.62 0.26 0.33 0.22 0.35 0.44 0.76 0.85 0.79 0.49 0.32 0.32 0.47 0.54 0.48 0.64 0.96 0.96 0.81 0.99 1.32 1.30 1.80 1.90 1.29 1.25
0.00 0.00 0.00 0.00 0.00 0.00 0.00 0.01 0.00 0.00 0.00 0.00 0.00 0.00 0.01 0.07 0.19 0.16 0.10 0.14 0.44 0.66 0.89 0.69 0.38 0.27 0.40 0.37 0.82 1.24 2.26 1.01 0.88 0.64 0.40 0.37 0.40 0.45 0.53 0.56 0.79 0.92 0.91 0.89 1.04 1.22 1.48 1.98 1.72
0.00 0.00 0.00 0.00 0.00 0.00 0.00 0.00 0.00 0.00 0.00 0.00 0.00 0.00 0.00 0.00 0.02 0.09 0.04 0.02 0.13 0.33 0.49 0.95 1.00 0.66 1.04 0.94 1.22 1.12 1.33 1.84 1.13 1.27 1.07 0.70 0.53 0.39 0.47 0.58 0.61 0.74 0.71 0.86 1.02 1.07 1.20 1.13 1.30